Location: Unspecified
(43.4354°N, 0.0000°E)
Time: 04:26:54
(UTC+00:00)

S-56A Canister/Altair - Pass Details

Date: 26 June 2019
Orbit: 632 x 2500 km, 38.9° (Epoch: 22 July)

Event Time Altitude Azimuth Distance (km) Brightness Sun altitude
Rises 15:23:55 0° 247° (WSW) 5,568 12.7 44.3°
Reaches altitude 10° 15:28:02 10° 245° (WSW) 4,307 12.3 43.6°
Maximum altitude 15:38:42 59° 170° (S) 1,589 9.7 41.7°
Drops below altitude 10° 15:45:42 10° 93° (E) 2,883 10.1 40.4°
Sets 15:47:57 0° 89° (E) 3,645 10.5 40.0°
